Weather History for KJDD - September, 2013

Change the Weather History Date:

Friday, September 20, 2013

  Actual Average (KTYR) Record (KTYR)
Temperature  
Mean Temperature 73 °F 75 °F  
Max Temperature 75 °F 85 °F 102 °F (1956)
Min Temperature 71 °F 65 °F 44 °F (1981)
Degree Days  
Heating Degree Days 0 0  
Month to date heating degree days 0  
Since 1 July heating degree days 0  
Cooling Degree Days 8 10  
Month to date cooling degree days 257  
Year to date cooling degree days 2179  
Growing Degree Days 23 (Base 50)    
Moisture  
Dew Point 73 °F    
Average Humidity 100    
Maximum Humidity 100    
Minimum Humidity 100    
Precipitation  
Precipitation 4.13 in 0.11 in 6.47 in (1979)
Month to date precipitation 2.28  
Year to date precipitation 31.54  
Snow  
Snow 0.00 in - - ()
Month to date snowfall  
Since 1 July snowfall  
Since 1 September snowfall  
Snow Depth -    
Sea Level Pressure  
Sea Level Pressure 29.88 in    
Wind  
Wind Speed 1 mph (NNE)    
Max Wind Speed 7 mph    
Max Gust Speed -    
Visibility 5 miles    
Events Rain , Thunderstorm    
T = Trace of Precipitation, MM = Missing Value Source: NWS Daily Summary

Daily Weather History Graph

Daily Weather History Graph

Search for Another Location

Airport or City:

Trip Planner

Search our weather history database for the weather conditions in past years. The results will help you decide how hot, cold, wet, or windy it might be!

Date:

Astronomy

Sep. 20, 2013 Rise Set
Actual Time 7:09 AM CDT 7:20 PM CDT
Civil Twilight 6:44 AM CDT 7:45 PM CDT
Nautical Twilight 6:15 AM CDT 8:14 PM CDT
Astronomical Twilight 5:46 AM CDT 8:43 PM CDT
Moon 8:03 PM CDT (9/20) 8:18 AM CDT (9/20)
Length of Visible Light 13h 01m
Length of Day
12h 11m
Full, 98% of the Moon is Illuminated
Sep 20
Full
Sep 26
Last Quarter
Oct 4
New
Oct 11
First Quarter
Oct 18
Full

Hourly Weather History & Observations

Time (CDT) Temp. Dew Point Humidity Pressure Visibility Wind Dir Wind Speed Gust Speed Precip Events Conditions
12:15 AM 75.2 °F 75.2 °F 100% 29.95 in 4.0 mi Calm Calm - N/A   Mostly Cloudy
12:35 AM 75.2 °F 75.2 °F 100% 29.95 in 4.0 mi Calm Calm - N/A   Partly Cloudy
12:55 AM 75.2 °F 75.2 °F 100% 29.95 in 5.0 mi Calm Calm - N/A   Scattered Clouds
1:15 AM 75.2 °F 75.2 °F 100% 29.95 in 5.0 mi Calm Calm - N/A   Mostly Cloudy
1:35 AM 75.2 °F 75.2 °F 100% 29.94 in 3.0 mi Calm Calm - N/A   Scattered Clouds
1:55 AM 75.2 °F 75.2 °F 100% 29.93 in 3.0 mi Calm Calm - N/A   Partly Cloudy
2:15 AM 75.2 °F 75.2 °F 100% 29.93 in 4.0 mi Calm Calm - N/A   Mostly Cloudy
2:35 AM 75.2 °F 75.2 °F 100% 29.92 in 4.0 mi Calm Calm - N/A   Mostly Cloudy
2:55 AM 75.2 °F 75.2 °F 100% 29.92 in 2.5 mi Calm Calm - 0.01 in Rain Rain
3:15 AM 75.2 °F 75.2 °F 100% 29.91 in 4.0 mi Calm Calm - N/A   Overcast
3:35 AM 75.2 °F 75.2 °F 100% 29.91 in 3.0 mi Calm Calm - 0.01 in Rain Heavy Rain
3:55 AM 75.2 °F 75.2 °F 100% 29.90 in 1.5 mi Calm Calm - 0.20 in Rain Heavy Rain
4:15 AM 75.2 °F 75.2 °F 100% 29.89 in 3.0 mi Calm Calm - 0.01 in   Drizzle
4:35 AM 75.2 °F 75.2 °F 100% 29.89 in 2.5 mi Calm Calm - 0.04 in Rain Heavy Rain
4:55 AM 75.2 °F 75.2 °F 100% 29.88 in 2.0 mi Calm Calm - 0.12 in Rain Rain
5:15 AM 75.2 °F 75.2 °F 100% 29.89 in 2.5 mi Calm Calm - 0.03 in Rain Heavy Rain
5:35 AM 75.2 °F 75.2 °F 100% 29.89 in 2.5 mi Calm Calm - 0.06 in Rain Heavy Rain
5:55 AM 75.2 °F 75.2 °F 100% 29.89 in 1.5 mi West 5.8 mph - 0.13 in Rain Heavy Rain
6:15 AM 73.4 °F 73.4 °F 100% 29.88 in 1.2 mi Calm Calm - 0.13 in Rain , Thunderstorm Heavy Thunderstorms and Rain
6:35 AM 73.4 °F 73.4 °F 100% 29.88 in 1.2 mi NNW 5.8 mph - 0.40 in Rain Heavy Rain
6:55 AM 73.4 °F 73.4 °F 100% 29.88 in 1.8 mi Calm Calm - 0.48 in Rain Heavy Rain
7:15 AM 73.4 °F 73.4 °F 100% 29.88 in 1.8 mi Calm Calm - 0.08 in Rain Heavy Rain
7:35 AM 73.4 °F 73.4 °F 100% 29.87 in 1.5 mi Calm Calm - 0.30 in Rain Rain
7:55 AM 73.4 °F 73.4 °F 100% 29.87 in 1.5 mi ESE 3.5 mph - 0.35 in Rain Rain
8:15 AM 73.4 °F 73.4 °F 100% 29.89 in 0.5 mi SE 3.5 mph - 0.20 in Rain Heavy Rain
8:35 AM 73.4 °F 73.4 °F 100% 29.88 in 0.2 mi ENE 4.6 mph - 1.02 in Rain Heavy Rain
8:55 AM 73.4 °F 73.4 °F 100% 29.88 in 0.8 mi Calm Calm - 1.37 in Rain Heavy Rain
9:15 AM 73.4 °F 73.4 °F 100% 29.89 in 0.2 mi North 3.5 mph - 0.21 in Rain Heavy Rain
9:35 AM 73.4 °F 73.4 °F 100% 29.88 in 0.2 mi NNW 4.6 mph - 0.60 in Rain Heavy Rain
9:55 AM 73.4 °F 73.4 °F 100% 29.88 in 1.0 mi North 3.5 mph - 0.74 in Rain Heavy Rain
10:15 AM 73.4 °F 73.4 °F 100% 29.88 in 0.5 mi Calm Calm - 0.11 in Rain Heavy Rain
10:35 AM 73.4 °F 73.4 °F 100% 29.88 in 1.2 mi Calm Calm - 0.23 in Rain Heavy Rain
10:55 AM 71.6 °F 71.6 °F 100% 29.88 in 1.2 mi Calm Calm - 0.31 in Rain Heavy Rain
11:15 AM 71.6 °F 71.6 °F 100% 29.88 in 1.2 mi NNE 4.6 mph - 0.04 in Rain Heavy Rain
11:35 AM 71.6 °F 71.6 °F 100% 29.88 in 2.5 mi ENE 3.5 mph - 0.08 in Rain Rain
11:55 AM 71.6 °F 71.6 °F 100% 29.87 in 2.0 mi NNE 4.6 mph - 0.12 in Rain Heavy Rain
12:15 PM 71.6 °F 71.6 °F 100% 29.88 in 1.8 mi Calm Calm - 0.03 in Rain Heavy Rain
12:35 PM 71.6 °F 71.6 °F 100% 29.89 in 2.0 mi NE 3.5 mph - 0.08 in Rain Heavy Rain
12:55 PM 71.6 °F 71.6 °F 100% 29.87 in 2.0 mi NE 4.6 mph - 0.13 in Rain Heavy Rain
1:15 PM 71.6 °F 71.6 °F 100% 29.87 in 2.0 mi ENE 3.5 mph - 0.04 in Rain Rain
1:35 PM 71.6 °F 71.6 °F 100% 29.85 in 2.0 mi Calm Calm - 0.09 in Rain Heavy Rain
1:55 PM 71.6 °F 71.6 °F 100% 29.84 in 2.5 mi ENE 5.8 mph - 0.14 in Rain Rain
2:15 PM 71.6 °F 71.6 °F 100% 29.84 in 5.0 mi NNE 3.5 mph - 0.01 in Rain Light Rain
2:35 PM 71.6 °F 71.6 °F 100% 29.84 in 10.0 mi Calm Calm - 0.01 in   Overcast
2:55 PM 71.6 °F 71.6 °F 100% 29.85 in 10.0 mi Calm Calm - 0.01 in   Overcast
3:15 PM 71.6 °F 71.6 °F 100% 29.84 in 10.0 mi Calm Calm - N/A   Overcast
3:35 PM 71.6 °F 71.6 °F 100% 29.84 in 3.0 mi NE 4.6 mph - N/A Rain Rain
3:55 PM 71.6 °F 71.6 °F 100% 29.85 in 6.0 mi Calm Calm - 0.01 in   Overcast
4:15 PM 71.6 °F 71.6 °F 100% 29.86 in 9.0 mi Calm Calm - N/A   Mostly Cloudy
4:35 PM 71.6 °F 71.6 °F 100% 29.86 in 7.0 mi Calm Calm - N/A   Drizzle
4:55 PM 71.6 °F 71.6 °F 100% 29.84 in 2.5 mi Calm Calm - 0.01 in Rain Rain
5:15 PM 71.6 °F 71.6 °F 100% 29.84 in 5.0 mi Calm Calm - N/A   Scattered Clouds
5:35 PM 71.6 °F 71.6 °F 100% 29.86 in 3.0 mi Calm Calm - N/A   Drizzle
5:55 PM 71.6 °F 71.6 °F 100% 29.87 in 7.0 mi Calm Calm - N/A   Mostly Cloudy
6:15 PM 71.6 °F 71.6 °F 100% 29.87 in 7.0 mi Calm Calm - N/A   Overcast
6:35 PM 71.6 °F 71.6 °F 100% 29.86 in 8.0 mi Calm Calm - N/A   Overcast
6:55 PM 71.6 °F 71.6 °F 100% 29.86 in 10.0 mi Calm Calm - N/A   Overcast
7:15 PM 71.6 °F 71.6 °F 100% 29.86 in 10.0 mi North 3.5 mph - N/A   Mostly Cloudy
7:35 PM 71.6 °F 71.6 °F 100% 29.87 in 10.0 mi North 3.5 mph - N/A   Overcast
7:55 PM 71.6 °F 71.6 °F 100% 29.87 in 10.0 mi North 4.6 mph - N/A   Overcast
8:15 PM 71.6 °F 71.6 °F 100% 29.87 in 10.0 mi North 3.5 mph - N/A   Overcast
8:35 PM 71.6 °F 71.6 °F 100% 29.87 in 10.0 mi NNE 3.5 mph - N/A   Partly Cloudy
8:55 PM 71.6 °F 71.6 °F 100% 29.87 in 10.0 mi North 3.5 mph - N/A   Mostly Cloudy
9:15 PM 71.6 °F 71.6 °F 100% 29.87 in 10.0 mi Calm Calm - N/A   Overcast
9:35 PM 71.6 °F 71.6 °F 100% 29.87 in 10.0 mi North 3.5 mph - N/A   Overcast
9:55 PM 71.6 °F 71.6 °F 100% 29.87 in 10.0 mi Calm Calm - N/A   Overcast
10:15 PM 71.6 °F 71.6 °F 100% 29.87 in 10.0 mi NNE 4.6 mph - N/A   Overcast
10:35 PM 71.6 °F 71.6 °F 100% 29.88 in 10.0 mi North 3.5 mph - N/A   Overcast
10:55 PM 71.6 °F 71.6 °F 100% 29.89 in 10.0 mi North 6.9 mph - N/A   Overcast
11:15 PM 71.6 °F 71.6 °F 100% 29.89 in 10.0 mi Calm Calm - N/A   Mostly Cloudy
11:35 PM 71.6 °F 71.6 °F 100% 29.89 in 10.0 mi North 3.5 mph - N/A   Partly Cloudy
11:55 PM 71.6 °F 71.6 °F 100% 29.90 in 10.0 mi North 5.8 mph - N/A   Mostly Cloudy